User: anonymous   Login
Location: Oshawa
(43.9000°N, 78.8670°W)
Time: 20:32:38
(UTC-04:00)
Language:

Cosmos 1821 Rocket - Orbit

View from above orbital plane
View from above orbital plane
View from above satellite
View from above satellite

Ground track
Ground track

The orbit data is extracted from the following two-line orbital elements,

1 17526U 87017B   15085.11958922  .00000191  00000-0  17745-3 0  9998
2 17526 082.9000 288.5067 0041646 073.5725 075.7682 13.76737693394337
Epoch (UTC): 26 March 2015 02:52:12
Eccentricity: 0.0041646
inclination: 82.9000°
perigee height: 945 km
apogee height: 1006 km
right ascension of ascending node: 288.5067°
argument of perigee: 73.5725°
revolutions per day: 13.76737693
mean anomaly at epoch: 75.7682°
orbit number at epoch: 39433

The dashed part of the orbit path shows where the satellite is in the earth's shadow,  

DLR